Weather Roundup
Issued by NWS Springfield, MO

Home | Current Version | Previous Version | Text Only | Print | Product List | Glossary On
Versions: 1 2 3 4 5 6 7 8 9 10 11 12 13 14 15 16 17 18 19 20 21 22 23 24 25 26 27 28 29 30 31 32 33 34 35 36 37 38 39 40 41 42 43 44 45 46 47 48 49 50
000
NZUS99 KSGF 061807
HRRSGF

HOURLY WEATHER
NATIONAL WEATHER SERVICE SPRINGFIELD MO
100 PM CDT WED MAY 06 2015

......SGF CWA......

CITY           SKY/WX    TMP DP  RH WIND       PRES   REMARKS
SPRINGFIELD    LGT RAIN  67  63  87 SE9       30.05F
6HR MIN TEMP:  60; 6HR MAX TEMP:  67; 6HR PCP:  0.12;

JOPLIN         FAIR      74  61  63 SE7G31    29.98F
6HR MIN TEMP:  61; 6HR MAX TEMP:  75; 6HR PCP:  0.07;

WEST PLAINS    PTSUNNY   75  55  49 S12       30.11F
6HR MIN TEMP:  56; 6HR MAX TEMP:  78;

ROLLA          PTSUNNY   74  59  59 S10       30.07F
6HR MIN TEMP:  62; 6HR MAX TEMP:  79; 6HR PCP: TRACE;

OSAGE BEACH    PTSUNNY   79  55  44 S10G18    30.06F
BRANSON        CLOUDY    72  59  64 S10       30.08F

......SURROUNDING SGF CWA......

CITY           SKY/WX    TMP DP  RH WIND       PRES   REMARKS
CHANUTE        CLOUDY    67  59  75 SE22G29   29.95F
PARSONS        CLOUDY    68  65  90 SE7       29.96F
COFFEYVILLE    CLOUDY    70  65  84 SE15G21   29.94F
EMPORIA        CLOUDY    67  61  81 S25G32    29.90F
GROVE OK       FAIR      79  57  47 S21G26    29.99F
ROGERS AR      FAIR      74  60  61 SE16G23   30.04F
SILOAM SPRINGS FAIR      75  55  50 S16G23    30.03F
HARRISON AR    PTSUNNY   71  61  70 S10       30.08F
NEAR YELLVILLE FAIR      81  55  41 S8G17     30.05F

......KANSAS AND MISSOURI......

CITY           SKY/WX    TMP DP  RH WIND       PRES   REMARKS
KANSAS CTY INT CLOUDY    67  60  78 S9        29.97F
DOWNTOWN KC    CLOUDY    69  58  67 S12       29.97F
COLUMBIA       FAIR      79  59  50 S17G29    30.05S
SEDALIA        CLOUDY    69  59  70 S16       30.04F
ST JOSEPH      LGT RAIN  69  60  73 S21G31    29.95S
ST LOUIS       PTSUNNY   85  53  33 S14G24    30.10F
SPIRIT OF STL  PTSUNNY   82  55  39 S12G18    30.07F
KIRKSVILLE     CLOUDY    75  61  61 S12       30.02S
WICHITA        CLOUDY    66  62  87 SE20      29.83F
TOPEKA         FAIR      70  62  76 SE22G29   29.91F
OLATHE         PTSUNNY   70  60  70 S15       29.96F

......TENNESSEE......

CITY           SKY/WX    TMP DP  RH WIND       PRES   REMARKS
MEMPHIS        PTSUNNY   84  54  35 S10G16    30.11F
NASHVILLE      PTSUNNY   82  55  39 VRB3      30.18F

......ARKANSAS.......

CITY           SKY/WX    TMP DP  RH WIND       PRES   REMARKS
FAYETTEVILLE   FAIR      75  66  73 S21G28    30.04F
FT SMITH       FAIR      78  56  46 SE8       30.02S
LITTLE ROCK    PTSUNNY   82  56  40 SE13      30.07F

......OKLAHOMA.......

CITY           SKY/WX    TMP DP  RH WIND       PRES   REMARKS
TULSA          CLOUDY    73  67  81 SE17G24   29.92F
PONCA CITY     CLOUDY    71  66  84 S16G26    29.86F
MCALESTER      PTSUNNY   77  65  66 S14G22    29.97F
OKLAHOMA CITY  CLOUDY    75  67  76 S22G30    29.88F

......IOWA............

CITY           SKY/WX    TMP DP  RH WIND       PRES   REMARKS
DES MOINES     CLOUDY    76  59  55 S22G29    29.94F
QUAD CITIES    FAIR      81  56  42 S17G23    30.05F

......ILLINOIS........

CITY           SKY/WX    TMP DP  RH WIND       PRES   REMARKS
QUINCY         FAIR      81  55  40 SW20G30   30.05F
CHICAGO        MOSUNNY   73  60  63 SE5       30.14F



USA.gov is the U.S. government's official web portal to all federal, state and local government web resources and services.